Location: Berduj
(43.0019°N, 22.3781°E)
Time: 07:56:16
(UTC+00:00)

CZ-4C R/B - Pass Details

Date: 19 October 2019
Orbit: 652 x 1350 km, 63.4° (Epoch: 12 November)

Event Time Altitude Azimuth Distance (km) Brightness Sun altitude
Rises 16:14:37 0° 319° (NW) 3,918 6.2 -6.7°
Reaches altitude 10° 16:17:15 10° 314° (NW) 3,050 5.7 -7.1°
Maximum altitude 16:24:19 48° 243° (WSW) 1,609 4.2 -8.4°
Drops below altitude 10° 16:32:09 10° 173° (S) 3,367 5.3 -9.9°
Sets 16:35:12 0° 168° (SSE) 4,356 5.8 -10.4°
